Location: Eyeline Observatory
(43.2182°N, 78.8632°W)
Time: 04:58:29
(UTC-05:00)

Envisat - Pass Details

Date: 11 October 2017
Orbit: 764 x 766 km, 98.2° (Epoch: 13 December)

Event Time Altitude Azimuth Distance (km) Brightness Sun altitude
Exits shadow 22:11:00 21° 278° (W) 1,657 5.2 -38.3°
Drops below altitude 10° 22:14:17 10° 318° (NW) 2,312 6.1 -38.8°
Sets 22:17:07 0° 333° (NNW) 3,244 6.9 -39.2°
